Regional Weather Roundup
Issued by NWS Northern Indiana

Home | Current Version | Previous Version | Graphics & Text | Print | Product List | Glossary On
Versions: 1 2 3 4 5 6 7 8 9 10 11 12 13 14 15 16 17 18 19 20 21 22 23 24 25 26 27 28 29 30 31 32 33 34 35 36 37 38 39 40 41 42 43 44 45 46 47 48 49 50
614
ASUS43 KIWX 130310
RWRIWX

KIWX WEATHER ROUNDUP
NATIONAL WEATHER SERVICE NORTHERN INDIANA
1000 PM EST FRI FEB 12 2016

NOTE: "FAIR" INDICATES FEW OR NO CLOUDS BELOW 12,000 FEET WITH NO
SIGNIFICANT WEATHER AND/OR OBSTRUCTIONS TO VISIBILITY.

* THESE STATIONS ARE NOT UNDER NWS QUALITY CONTROL. THEY ALSO MAY NOT
  REPORT WEATHER SUCH AS PRECIPITATION OR FOG.

INZ001>027-130400-
NORTHERN INDIANA

CITY           SKY/WX    TMP DP  RH WIND       PRES   REMARKS
GARY*          CLOUDY    18  -6  35 NW21G36   30.37R WCI   1
VALPARAISO     MOCLDY    14  -2  49 NW18G32   30.32R WCI  -3
MICHIGAN CITY* LGT SNOW  16   7  67 NW10G30   30.32R WCI   3
LAPORTE*       LGT SNOW  16   8  69 NW17G25   30.30R WCI   0
KNOX*          PTCLDY    16   3  57 NW24      30.31R WCI  -3
SOUTH BEND     FLURRIES  13   7  77 NW17      30.28R WCI  -4
GOSHEN         PTCLDY    13   6  74 NW15      30.24R WCI  -3
MONTICELLO*    CLEAR     17  -3  42 NW16G25   30.30R WCI   1
LOGANSPORT*    CLEAR     18  -4  38 NW13G23   30.30R WCI   4
ROCHESTER*     PTCLDY    19   3  49 NW17G29   30.28R WCI   4
WARSAW*        CLOUDY    14   9  79 NW16G22   30.26R WCI  -2
ANGOLA*        CLOUDY    12  10  92 NW12      30.18R VSB 1   WCI  -2
FORT WAYNE     PTCLDY    15   6  67 NW13      30.24R WCI   1
HUNTINGTON*    PTCLDY    15   5  65 NW9       30.25R WCI   3
PERU/GRISSOM   PTCLDY    17   3  54 NW16      30.25R WCI   2
MARION*        PTCLDY    16  -2  46 NW12      30.27R WCI   2

$$
INZ028>050-130400-
CENTRAL INDIANA

CITY           SKY/WX    TMP DP  RH WIND       PRES   REMARKS
LAFAYETTE      PTCLDY    17   3  54 NW14      30.33R WCI   3
KOKOMO*        MOCLDY    18   3  53 NW17      30.27R WCI   2
MUNCIE*        PTCLDY    16   4  59 NW12      30.25R WCI   3
INDIANAPOLIS   PTCLDY    19   6  57 NW16G22   30.29R WCI   4

$$
MIZ043>046-050>051-056>058-064>065-071>073-077>080-130400-
SOUTHWEST LOWER MICHIGAN

CITY           SKY/WX    TMP DP  RH WIND       PRES   REMARKS
BATTLE CREEK   PTCLDY    11  -1  58 N16G28    30.21R WCI  -6
BENTON HARBOR  CLOUDY    17   5  59 NW16G29   30.29R HAZE    WCI   2
COLDWATER*     PTCLDY    12   4  70 NW14      30.20R WCI  -3
HILLSDALE*     MOCLDY    11   3  70 NW14      30.15R WCI  -4
HOLLAND        LGT SNOW  11   3  70 N13G22    30.28R WCI  -4
GRAND RAPIDS   FLURRIES  10   2  69 NW17G29   30.25R WCI  -8
KALAMAZOO      CLOUDY    11   4  73 N17       30.23R WCI  -6
STURGIS*       LGT SNOW  13  10  86 N9G17     30.20R VSB 1   WCI   1
THREE RIVERS*  LGT SNOW  14  10  83 N8G22     30.23R WCI   3

$$
OHZ001>008-015>018-024>025-130400-
NORTHWEST OHIO

CITY           SKY/WX    TMP DP  RH WIND       PRES   REMARKS
DEFIANCE       PTCLDY    16   7  67 NW13G22   30.21R WCI   2
FINDLAY        PTCLDY    16   7  67 NW17      30.16R WCI   0
TOLEDO EXPRESS PTCLDY    14   4  64 NW14      30.16R WCI  -1
TOLEDO METCALF PTCLDY    16   5  62 NW17G25   30.17R WCI   0
LIMA           CLOUDY    16  10  77 NW18      30.17R WCI   0

$$
AND FOR LAKE MICHIGAN COASTAL AND OPEN LAKE BUOY OBSERVATIONS

STATION/POSITION TEMP    WIND        PRES    VSBY  WAVE
                 AIR SEA DIR/SP/G                  HT/PER
                 (F)     (DEG/KT/KT) (MB)    (MI)  (FT/S)
CALUMET HARBOR    15                 1026.8R
MICHIGAN CITY     16     300/ 31/ 38   N/A
BURNS HARBOR      16     330/ 21     1027.8R
SAINT JOSEPH      18     310/ 23/ 31 1026.4R

$$
&&




USA.gov is the U.S. government's official web portal to all federal, state and local government web resources and services.